Вернуться в каталог

COSMOS 2026

АктивенВоенныеPO
NORAD 20045·PAYLOAD·🇷🇺 Russia

Запущен Jun 7, 1989 с Plesetsk Cosmodrome

Loading…

Ближайшие Пролёты (ближайшие 24 часа)

TLE

СвежийSource: Space-Track

Эпоха: Sep 14, 2026, 03:58 UTC

1 20045U 89042A   26257.16558726  .00000054  00000-0  39552-4 0  9993
2 20045  82.9448 342.1015 0041110  73.7249 306.5592 13.76269951871536

Отслеживайте COSMOS 2026 в реальном времени с AllMySat

Download on the App Store